Location: Pompeys Pillar
(45.9913°N, 107.9528°W)
Time: 05:38:01
(UTC+00:00)

Tiros 1 - Pass Details

Date: 05 June 2022
Orbit: 629 x 663 km, 48.4° (Epoch: 30 June)

Event Time Altitude Azimuth Distance (km) Brightness Sun altitude
Rises 09:53:14 0° 289° (WNW) 2,922 10.3 -12.1°
Reaches altitude 10° 09:55:41 10° 281° (W) 2,015 9.4 -11.9°
Maximum altitude 09:59:56 37° 214° (SW) 997 7.6 -11.4°
Drops below altitude 10° 10:04:12 10° 148° (SSE) 2,023 9.5 -10.9°
Sets 10:06:39 0° 140° (SE) 2,935 10.4 -10.7°
